TimeEDT,TemperatureF,Dew PointF,Humidity,Sea Level PressureIn,VisibilityMPH,Wind Direction,Wind SpeedMPH,Gust SpeedMPH,PrecipitationIn,Events,Conditions,WindDirDegrees,DateUTC
12:53 AM,61.0,51.1,70,30.25,10.0,Calm,Calm,-,N/A,,Scattered Clouds,0,2013-03-30 04:53:00
1:53 AM,59.0,53.1,81,30.23,10.0,Calm,Calm,-,N/A,,Partly Cloudy,0,2013-03-30 05:53:00
2:53 AM,57.9,54.0,87,30.22,10.0,Calm,Calm,-,N/A,,Clear,0,2013-03-30 06:53:00
3:53 AM,55.9,53.1,90,30.22,10.0,Calm,Calm,-,N/A,,Clear,0,2013-03-30 07:53:00
4:53 AM,55.9,53.1,90,30.21,10.0,Calm,Calm,-,N/A,,Clear,0,2013-03-30 08:53:00
5:53 AM,55.0,53.1,93,30.22,10.0,Calm,Calm,-,N/A,,Clear,0,2013-03-30 09:53:00
6:53 AM,57.0,54.0,89,30.22,10.0,Calm,Calm,-,N/A,,Partly Cloudy,0,2013-03-30 10:53:00
7:53 AM,55.9,53.1,90,30.25,10.0,Calm,Calm,-,N/A,,Clear,0,2013-03-30 11:53:00
8:53 AM,63.0,55.0,75,30.27,10.0,Calm,Calm,-,N/A,,Partly Cloudy,0,2013-03-30 12:53:00
9:53 AM,73.0,52.0,48,30.27,10.0,ESE,13.8,-,N/A,,Scattered Clouds,110,2013-03-30 13:53:00
10:53 AM,75.0,51.1,43,30.27,10.0,East,15.0,19.6,N/A,,Partly Cloudy,100,2013-03-30 14:53:00
11:53 AM,75.9,52.0,43,30.27,10.0,ESE,9.2,18.4,N/A,,Scattered Clouds,110,2013-03-30 15:53:00
12:53 PM,75.9,48.0,37,30.25,10.0,East,10.4,23.0,N/A,,Partly Cloudy,90,2013-03-30 16:53:00
1:53 PM,75.9,48.9,38,30.22,10.0,ESE,12.7,21.9,N/A,,Clear,120,2013-03-30 17:53:00
2:53 PM,75.9,48.9,38,30.20,10.0,East,11.5,20.7,N/A,,Clear,90,2013-03-30 18:53:00
3:53 PM,75.9,53.1,45,30.18,10.0,East,13.8,21.9,N/A,,Clear,100,2013-03-30 19:53:00
4:53 PM,75.0,52.0,44,30.18,10.0,ESE,12.7,-,N/A,,Clear,120,2013-03-30 20:53:00
5:53 PM,73.0,52.0,48,30.17,10.0,East,10.4,19.6,N/A,,Partly Cloudy,100,2013-03-30 21:53:00
6:53 PM,70.0,52.0,53,30.18,10.0,East,9.2,-,N/A,,Clear,100,2013-03-30 22:53:00
7:53 PM,66.0,52.0,60,30.18,10.0,East,8.1,-,N/A,,Clear,100,2013-03-30 23:53:00
8:53 PM,63.0,51.1,65,30.19,10.0,East,5.8,-,N/A,,Clear,90,2013-03-31 00:53:00
9:53 PM,64.9,53.1,65,30.21,10.0,East,4.6,-,N/A,,Clear,90,2013-03-31 01:53:00
10:53 PM,59.0,52.0,78,30.21,10.0,East,6.9,-,N/A,,Clear,90,2013-03-31 02:53:00
11:53 PM,62.1,55.0,78,30.21,10.0,East,4.6,-,N/A,,Partly Cloudy,90,2013-03-31 03:53:00